YO6HEG-10 Weather Reports


Display with metric or nautical units.
time (UTC)temp
F
wind
direction
speed
MPH
gust
MPH
rain 1hr
in
rain 24hr
in
rain mn
in
humidity
%
barometer
mb
20190524083302 59 157 0.0 1.0 0.00 0.00 0.00 79 975.4
20190524082802 59 247 1.0 1.0 0.00 0.00 0.00 79 975.4
20190524082301 59 292 0.0 0.0 0.00 0.00 0.00 79 975.4
20190524081803 59 180 0.0 1.0 0.00 0.00 0.00 79 975.4
20190524081301 59 90 0.0 3.0 0.00 0.00 0.00 79 975.4
20190524080802 59 135 3.0 3.0 0.00 0.00 0.00 79 975.6
20190524080300 59 157 0.0 1.0 0.00 0.00 0.00 79 975.5
20190524075801 59 180 0.0 3.0 0.00 0.00 0.00 79 975.5
20190524075300 59 157 3.0 3.0 0.00 0.00 0.00 78 975.5
20190524074759 60 157 1.0 1.0 0.00 0.00 0.00 80 975.6
20190524074259 59 180 0.0 0.0 0.00 0.00 0.00 80 975.5
20190524073759 59 157 0.0 3.0 0.00 0.00 0.00 80 975.6
20190524073258 59 157 2.0 2.0 0.00 0.00 0.00 81 975.5
20190524072758 58 225 2.0 4.0 0.00 0.00 0.00 80 975.4
20190524072258 58 180 0.0 4.0 0.00 0.00 0.00 81 975.4
20190524071758 58 157 0.0 0.0 0.00 0.00 0.00 81 975.5
20190524071257 58 225 0.0 0.0 0.00 0.00 0.00 81 975.5
20190524070758 58 180 0.0 2.0 0.00 0.00 0.00 81 975.5
20190524070257 58 225 2.0 2.0 0.00 0.00 0.00 81 975.5
20190524065758 58 135 0.0 2.0 0.00 0.00 0.00 81 975.6
20190524065256 58 157 2.0 2.0 0.00 0.00 0.00 82 975.5
20190524064758 58 225 0.0 3.0 0.00 0.00 0.00 83 975.5
20190524064255 58 157 0.0 2.0 0.00 0.00 0.00 83 975.4
20190524063755 57 157 2.0 2.0 0.00 0.00 0.00 83 975.5
20190524063256 58 45 0.0 2.0 0.00 0.00 0.00 83 975.5
20190524062755 58 135 2.0 2.0 0.00 0.00 0.00 83 975.4
20190524062254 58 135 0.0 0.0 0.00 0.00 0.00 83 975.4
20190524061755 58 315 0.0 0.0 0.00 0.00 0.00 84 975.4
20190524061254 57 202 0.0 0.0 0.00 0.00 0.00 84 975.5
20190524060253 57 292 0.0 0.0 0.00 0.00 0.00 85 975.5
20190524055755 56 202 0.0 3.0 0.00 0.00 0.00 85 975.5
20190524055254 56 247 2.0 2.0 0.00 0.00 0.00 85 975.5
20190524054752 56 202 0.0 0.0 0.00 0.00 0.00 86 975.5
20190524054252 56 225 0.0 2.0 0.00 0.00 0.00 86 975.5
20190524053752 55 247 0.0 0.0 0.00 0.00 0.00 86 975.5
20190524053253 55 180 0.0 2.0 0.00 0.00 0.00 86 975.4
20190524052751 55 292 2.0 2.0 0.00 0.00 0.00 87 975.4
20190524052251 55 202 0.0 3.0 0.00 0.00 0.00 87 975.4
20190524051751 55 202 0.0 3.0 0.00 0.00 0.00 87 975.4
20190524051250 55 202 3.0 3.0 0.00 0.00 0.00 87 975.6
20190524050750 55 180 2.0 2.0 0.00 0.00 0.00 88 975.6
20190524050250 54 157 0.0 0.0 0.00 0.00 0.00 87 975.5
20190524045749 54 202 0.0 1.0 0.00 0.00 0.00 88 975.5
20190524045249 54 270 1.0 1.0 0.00 0.00 0.00 88 975.5
20190524044749 54 202 1.0 1.0 0.00 0.00 0.00 89 975.5
20190524044248 54 202 0.0 0.0 0.00 0.00 0.00 89 975.5
20190524043749 53 180 0.0 0.0 0.00 0.00 0.00 89 975.5
20190524043248 53 180 0.0 2.0 0.00 0.00 0.00 89 975.4
20190524042750 53 180 0.0 0.0 0.00 0.00 0.00 89 975.4
20190524042247 53 180 0.0 0.0 0.00 0.00 0.00 89 975.5
20190524041749 53 292 0.0 1.0 0.00 0.00 0.00 89 975.6
20190524041247 53 180 1.0 1.0 0.00 0.00 0.00 89 975.4
20190524040748 53 202 0.0 2.0 0.00 0.00 0.00 89 975.4
20190524040246 53 247 2.0 2.0 0.00 0.00 0.00 90 975.4
20190524035747 53 180 0.0 0.0 0.00 0.00 0.00 89 975.5
20190524035246 53 180 0.0 0.0 0.00 0.00 0.00 89 975.5
20190524034745 52 180 0.0 3.0 0.00 0.00 0.00 90 975.5
20190524034245 52 225 3.0 3.0 0.00 0.00 0.00 90 975.5
20190524033745 52 225 0.0 4.0 0.00 0.00 0.00 90 975.5
20190524033244 52 270 4.0 4.0 0.00 0.00 0.00 90 975.4
20190524032744 52 180 0.0 2.0 0.00 0.00 0.00 90 975.3
20190524032244 52 247 0.0 2.0 0.00 0.00 0.00 90 975.4
20190524031743 52 157 1.0 2.0 0.00 0.00 0.00 90 975.4
20190524031243 52 202 2.0 2.0 0.00 0.00 0.00 90 975.5
20190524030743 52 180 0.0 0.0 0.00 0.00 0.00 90 975.4
20190524030243 52 157 0.0 2.0 0.00 0.00 0.00 90 975.5
20190524025742 52 180 2.0 2.0 0.00 0.00 0.00 90 975.5
20190524025242 52 180 0.0 1.0 0.00 0.00 0.00 90 975.2
20190524024742 52 180 0.0 1.0 0.00 0.00 0.00 89 975.2
20190524024241 52 202 0.0 2.0 0.00 0.00 0.00 89 975.3
20190524023743 52 157 2.0 2.0 0.00 0.00 0.00 89 975.4
20190524023241 53 202 0.0 1.0 0.00 0.00 0.00 89 975.3
20190524022741 53 202 0.0 2.0 0.00 0.00 0.00 89 975.3
20190524022240 53 157 1.0 2.0 0.00 0.00 0.00 89 975.4
20190524021740 53 270 1.0 1.0 0.00 0.00 0.00 89 975.4
20190524021240 53 292 0.0 0.0 0.00 0.00 0.00 89 975.3
20190524020743 53 180 0.0 0.0 0.00 0.00 0.00 89 975.3
20190524020239 53 292 0.0 0.0 0.00 0.00 0.00 89 975.3
20190524015743 53 180 0.0 0.0 0.00 0.00 0.00 89 975.2
20190524015239 53 202 0.0 0.0 0.00 0.00 0.00 89 975.3
20190524014745 53 180 0.0 1.0 0.00 0.00 0.00 89 975.4
20190524014238 53 180 1.0 1.0 0.00 0.00 0.00 89 975.4
20190524013739 53 202 0.0 0.0 0.00 0.00 0.00 89 975.5
20190524013237 53 180 0.0 0.0 0.00 0.00 0.00 88 975.5
20190524012740 53 180 0.0 1.0 0.00 0.00 0.00 88 975.5
20190524012237 53 180 1.0 1.0 0.00 0.00 0.00 88 975.5
20190524011743 53 292 0.0 0.0 0.00 0.00 0.00 88 975.5
20190524011236 53 202 0.0 1.0 0.00 0.00 0.00 88 975.5
20190524010743 53 180 0.0 0.0 0.00 0.00 0.00 88 975.5
20190524010236 53 202 0.0 0.0 0.00 0.00 0.00 88 975.6
20190524005737 53 202 0.0 1.0 0.00 0.00 0.00 88 975.7
20190524005235 53 180 1.0 1.0 0.00 0.00 0.00 88 975.7
20190524004738 53 157 1.0 1.0 0.00 0.00 0.00 88 975.8
20190524004234 53 157 0.0 1.0 0.00 0.00 0.00 88 975.8
20190524003234 53 202 3.0 3.0 0.00 0.00 0.00 88 975.8
20190524002733 53 202 0.0 1.0 0.00 0.00 0.00 88 975.8
20190524002233 54 202 1.0 2.0 0.00 0.00 0.00 87 975.8
20190524001733 54 157 1.0 2.0 0.00 0.00 0.00 87 975.9
20190524001233 54 225 2.0 2.0 0.00 0.00 0.00 87 976.1
20190524000735 54 225 0.0 0.0 0.00 0.00 0.00 87 976.3
20190524000232 54 202 0.0 0.0 0.00 0.00 0.00 87 976.2
20190523235732 54 225 0.0 0.0 0.00 0.00 0.00 87 976.2
20190523235231 54 180 0.0 0.0 0.00 0.00 0.00 87 976.1
20190523234731 54 180 0.0 0.0 0.00 0.00 0.00 87 976.2
20190523234231 54 202 0.0 1.0 0.00 0.00 0.00 87 976.2
20190523233730 54 180 1.0 1.0 0.00 0.00 0.00 87 976.2
20190523233230 54 180 0.0 0.0 0.00 0.00 0.00 87 976.3
20190523232730 54 180 0.0 0.0 0.00 0.00 0.00 87 976.2
20190523232230 54 180 0.0 0.0 0.00 0.00 0.00 87 976.3
20190523231730 54 202 0.0 0.0 0.00 0.00 0.00 87 976.3
20190523231229 54 180 0.0 0.0 0.00 0.00 0.00 87 976.6
20190523230729 54 180 0.0 0.0 0.00 0.00 0.00 87 976.5
20190523230230 54 225 0.0 0.0 0.00 0.00 0.00 87 976.6
20190523225728 54 202 0.0 2.0 0.00 0.00 0.00 87 976.5
20190523225228 54 247 2.0 2.0 0.00 0.00 0.00 87 976.5
20190523224728 54 247 2.0 2.0 0.00 0.00 0.00 87 976.4
20190523224229 54 247 0.0 3.0 0.00 0.00 0.00 87 976.5
20190523223727 54 247 0.0 1.0 0.00 0.00 0.00 87 976.5
20190523223228 54 270 1.0 1.0 0.00 0.00 0.00 87 976.6
20190523222727 54 270 0.0 0.0 0.00 0.00 0.00 87 976.7
20190523222227 55 270 0.0 0.0 0.00 0.00 0.00 87 976.7
20190523221726 55 180 0.0 3.0 0.00 0.00 0.00 87 976.7
20190523221227 55 202 3.0 3.0 0.00 0.00 0.00 86 976.7
20190523220725 55 225 0.0 2.0 0.00 0.00 0.00 86 976.7
20190523220228 55 202 1.0 4.0 0.00 0.00 0.00 86 976.8
20190523215725 55 202 4.0 4.0 0.00 0.00 0.00 86 976.7
20190523215226 55 247 0.0 4.0 0.00 0.00 0.00 86 976.7
20190523214724 55 247 4.0 4.0 0.00 0.00 0.00 86 976.8
20190523214225 55 247 0.0 0.0 0.00 0.00 0.00 86 976.9
20190523213724 55 202 0.0 0.0 0.00 0.00 0.00 86 976.8
20190523213223 55 202 0.0 0.0 0.00 0.00 0.00 86 976.8
20190523212723 55 202 0.0 0.0 0.00 0.00 0.00 86 976.8
20190523212223 55 180 0.0 2.0 0.00 0.00 0.00 86 976.7
20190523211722 55 270 0.0 1.0 0.00 0.00 0.00 86 976.8
20190523211222 55 270 0.0 0.0 0.00 0.00 0.00 86 976.7
20190523210722 55 270 0.0 0.0 0.00 0.00 0.00 86 976.8
20190523210221 55 202 0.0 0.0 0.00 0.00 0.00 86 976.7
20190523205721 55 202 0.0 3.0 0.00 0.00 0.00 86 976.6
20190523205221 55 270 3.0 3.0 0.00 0.00 0.00 86 976.6
20190523204721 55 270 0.0 2.0 0.00 0.00 0.00 86 976.5
20190523204220 55 292 2.0 2.0 0.00 0.00 0.00 86 976.7
20190523203720 55 270 1.0 4.0 0.00 0.00 0.00 86 976.6
20190523203220 56 202 4.0 4.0 0.00 0.00 0.00 86 976.8
20190523202719 56 247 4.0 4.0 0.00 0.00 0.00 86 976.7
20190523202219 56 225 3.0 3.0 0.00 0.00 0.00 85 976.7
20190523201719 56 180 3.0 3.0 0.00 0.00 0.00 85 976.8
20190523201218 56 202 0.0 0.0 0.00 0.00 0.00 85 976.7
20190523200718 56 337 0.0 2.0 0.00 0.00 0.00 85 976.8
20190523200218 56 202 2.0 6.0 0.00 0.00 0.00 85 976.8
20190523195718 56 247 4.0 4.0 0.00 0.00 0.00 85 976.7
20190523195217 56 202 0.0 3.0 0.00 0.00 0.00 85 976.6
20190523194718 57 225 2.0 2.0 0.00 0.00 0.00 84 976.7
20190523194217 57 202 0.0 1.0 0.00 0.00 0.00 84 976.7
20190523193717 57 225 0.0 0.0 0.00 0.00 0.00 84 976.6
20190523193217 57 225 0.0 0.0 0.00 0.00 0.00 84 976.5
20190523192719 57 157 0.0 1.0 0.00 0.00 0.00 84 976.5
20190523192216 57 270 1.0 3.0 0.00 0.00 0.00 84 976.5
20190523191719 57 247 3.0 3.0 0.00 0.00 0.00 84 976.5
20190523191215 57 202 0.0 2.0 0.00 0.00 0.00 84 976.4
20190523190718 57 292 0.0 0.0 0.00 0.00 0.00 84 976.4
20190523190214 57 202 0.0 2.0 0.00 0.00 0.00 84 976.5
20190523185718 57 225 2.0 4.0 0.00 0.00 0.00 84 976.5
20190523185214 57 247 3.0 3.0 0.00 0.00 0.00 84 976.7
20190523184715 57 225 3.0 3.0 0.00 0.00 0.00 84 976.5
20190523184213 57 202 0.0 3.0 0.00 0.00 0.00 84 976.6
20190523183714 57 225 3.0 3.0 0.00 0.00 0.00 84 976.3
20190523183213 57 90 0.0 2.0 0.00 0.00 0.00 83 976.4
20190523182714 58 202 1.0 3.0 0.00 0.00 0.00 83 976.4
20190523182212 58 247 3.0 3.0 0.00 0.00 0.00 83 976.3
20190523181713 58 225 2.0 4.0 0.00 0.00 0.00 83 976.2
20190523181211 58 247 2.0 4.0 0.00 0.00 0.00 83 976.1
20190523180711 58 247 4.0 4.0 0.00 0.00 0.00 83 976.0
20190523180212 58 202 2.0 5.0 0.00 0.00 0.00 82 975.9
20190523175711 58 225 5.0 7.0 0.00 0.00 0.00 82 975.9
20190523175210 58 247 7.0 7.0 0.00 0.00 0.00 81 975.9
20190523174710 58 202 4.0 5.0 0.00 0.00 0.00 81 975.9
20190523174210 59 247 4.0 5.0 0.00 0.00 0.00 80 975.8
20190523173709 59 292 4.0 4.0 0.00 0.00 0.00 80 975.6
20190523172709 59 270 6.0 8.0 0.00 0.00 0.00 79 975.6
20190523172208 59 247 5.0 8.0 0.00 0.00 0.00 78 975.5
20190523171710 59 202 2.0 7.0 0.00 0.00 0.00 78 975.5
20190523171208 59 247 3.0 5.0 0.00 0.00 0.00 77 975.5
20190523170708 60 247 5.0 9.0 0.00 0.00 0.00 77 975.5
20190523170208 60 247 9.0 9.0 0.00 0.00 0.00 76 975.4
20190523165707 60 202 2.0 6.0 0.00 0.00 0.00 77 975.4
20190523165207 60 202 3.0 8.0 0.00 0.00 0.00 77 975.4
20190523164707 60 270 1.0 5.0 0.00 0.00 0.00 77 975.4
20190523164206 60 157 0.0 4.0 0.00 0.00 0.00 77 975.4
20190523163706 61 270 2.0 3.0 0.00 0.00 0.00 77 975.4
20190523163206 61 225 2.0 6.0 0.00 0.00 0.00 76 975.3
20190523162705 61 247 6.0 6.0 0.00 0.00 0.00 76 975.3
20190523162206 61 202 1.0 3.0 0.00 0.00 0.00 76 975.2
20190523161705 61 202 3.0 3.0 0.00 0.00 0.00 77 975.2
20190523161204 61 247 0.0 5.0 0.00 0.00 0.00 76 975.2
20190523160704 61 225 5.0 5.0 0.00 0.00 0.00 76 975.2
20190523160204 61 225 2.0 6.0 0.00 0.00 0.00 76 975.2
20190523155704 61 247 6.0 6.0 0.00 0.00 0.00 75 975.3
20190523155203 61 247 5.0 5.0 0.00 0.00 0.00 75 975.3
20190523154703 61 315 2.0 9.0 0.00 0.00 0.00 75 975.2
20190523154203 61 247 7.0 7.0 0.00 0.00 0.00 76 975.2
20190523153702 61 225 4.0 9.0 0.00 0.00 0.00 76 975.2
20190523153202 61 225 2.0 6.0 0.00 0.00 0.00 76 975.3
20190523152703 61 202 0.0 6.0 0.00 0.00 0.00 78 975.3
20190523152202 61 225 6.0 6.0 0.00 0.00 0.00 78 975.3
20190523151701 60 270 6.0 6.0 0.00 0.00 0.00 78 975.3
20190523151201 61 247 6.0 6.0 0.00 0.00 0.00 78 975.5
20190523150703 61 202 3.0 6.0 0.00 0.00 0.00 77 975.4
20190523150200 61 180 6.0 6.0 0.00 0.00 0.00 76 975.5
20190523145700 61 247 6.0 6.0 0.00 0.00 0.00 75 975.5
20190523145200 61 202 3.0 3.0 0.00 0.00 0.00 72 975.5
20190523144659 61 202 2.0 4.0 0.00 0.00 0.00 73 975.4
20190523144159 61 247 3.0 5.0 0.00 0.00 0.00 73 975.5
20190523143659 61 225 0.0 4.0 0.00 0.00 0.00 74 975.4
20190523143159 61 157 2.0 2.0 0.00 0.00 0.00 74 975.5
20190523142658 61 180 0.0 0.0 0.00 0.00 0.00 74 975.6
20190523142158 61 337 0.0 4.0 0.00 0.00 0.00 73 975.4
20190523141658 61 202 1.0 2.0 0.00 0.00 0.00 73 975.5
20190523141157 62 180 2.0 2.0 0.00 0.00 0.00 73 975.5
20190523140657 62 270 2.0 2.0 0.00 0.00 0.00 72 975.5
20190523140157 62 180 0.0 2.0 0.00 0.00 0.00 71 975.4
20190523135657 62 112 2.0 2.0 0.00 0.00 0.00 71 975.3
20190523135156 62 180 0.0 2.0 0.00 0.00 0.00 70 975.4
20190523134656 62 157 2.0 2.0 0.00 0.00 0.00 70 975.3
20190523134156 63 315 1.0 3.0 0.00 0.00 0.00 70 975.5
20190523133655 63 180 1.0 3.0 0.00 0.00 0.00 69 975.5
20190523133155 63 157 3.0 6.0 0.00 0.00 0.00 68 975.5
20190523132655 63 157 0.0 5.0 0.00 0.00 0.00 67 975.5
20190523132154 63 157 5.0 5.0 0.00 0.00 0.00 66 975.5
20190523131654 64 157 4.0 5.0 0.00 0.00 0.00 66 975.6
20190523131154 64 135 2.0 3.0 0.00 0.00 0.00 66 975.5
20190523130655 63 202 3.0 4.0 0.00 0.00 0.00 66 975.5
20190523130153 63 157 4.0 4.0 0.00 0.00 0.00 65 975.4
20190523125653 63 225 0.0 2.0 0.00 0.00 0.00 66 975.6
20190523125153 63 247 2.0 3.0 0.00 0.00 0.00 65 975.5
20190523124652 63 270 1.0 7.0 0.00 0.00 0.00 66 975.7
20190523124152 63 292 3.0 3.0 0.00 0.00 0.00 66 975.8
20190523123657 63 270 1.0 2.0 0.00 0.00 0.00 66 975.7
20190523123152 63 180 1.0 5.0 0.00 0.00 0.00 67 975.9
20190523122651 63 247 5.0 5.0 0.00 0.00 0.00 66 975.9
20190523122152 63 247 3.0 3.0 0.00 0.00 0.00 66 975.9
20190523121651 64 225 2.0 3.0 0.00 0.00 0.00 65 975.8
20190523121150 64 225 2.0 5.0 0.00 0.00 0.00 65 975.9
20190523120650 64 225 3.0 3.0 0.00 0.00 0.00 65 975.9
20190523120150 64 225 3.0 3.0 0.00 0.00 0.00 65 975.8
20190523115651 64 225 3.0 3.0 0.00 0.00 0.00 66 975.8
20190523115149 64 225 3.0 5.0 0.00 0.00 0.00 65 975.9
20190523114650 64 247 5.0 5.0 0.00 0.00 0.00 65 975.9
20190523114149 64 270 2.0 2.0 0.00 0.00 0.00 64 976.1
20190523113650 64 247 2.0 5.0 0.00 0.00 0.00 65 976.1
20190523113148 64 270 5.0 6.0 0.00 0.00 0.00 64 976.1
20190523112649 64 247 1.0 5.0 0.00 0.00 0.00 63 976.0
20190523112148 65 225 5.0 5.0 0.00 0.00 0.00 64 976.1
20190523111647 65 247 2.0 12.0 0.00 0.00 0.00 66 976.1
20190523111148 64 247 12.0 12.0 0.00 0.00 0.00 66 976.1
20190523110648 64 247 3.0 3.0 0.00 0.00 0.00 64 976.1
20190523110146 64 202 2.0 6.0 0.00 0.00 0.00 64 976.2
20190523105646 64 292 2.0 3.0 0.00 0.00 0.00 67 976.2
20190523105146 64 225 2.0 4.0 0.00 0.00 0.00 68 976.2
20190523104647 64 247 4.0 5.0 0.00 0.00 0.00 68 976.2
20190523103647 64 225 3.0 3.0 0.00 0.00 0.00 67 976.2
20190523103144 64 315 1.0 1.0 0.00 0.00 0.00 66 976.4
20190523102644 64 270 0.0 4.0 0.00 0.00 0.00 66 976.3
20190523102144 65 270 1.0 3.0 0.00 0.00 0.00 67 976.5
20190523101649 65 225 3.0 4.0 0.00 0.00 0.00 66 976.4
20190523101143 66 270 0.0 0.0 0.00 0.00 0.00 68 976.4
20190523100647 66 292 0.0 4.0 0.00 0.00 0.00 69 976.3
20190523100143 65 270 2.0 2.0 0.00 0.00 0.00 70 976.4
20190523095644 65 337 0.0 1.0 0.00 0.00 0.00 70 976.4
20190523095142 64 292 0.0 3.0 0.00 0.00 0.00 71 976.3
20190523094642 63 225 2.0 2.0 0.00 0.00 0.00 72 976.4
20190523094142 63 292 0.0 1.0 0.00 0.00 0.00 72 976.3
20190523093643 62 337 1.0 1.0 0.00 0.00 0.00 72 976.4
20190523093141 62 337 0.0 0.0 0.00 0.00 0.00 72 976.4
20190523092641 62 337 0.0 3.0 0.00 0.00 0.00 72 976.4
20190523092140 62 180 0.0 0.0 0.00 0.00 0.00 73 976.4
20190523091640 62 337 0.0 0.0 0.00 0.00 0.00 73 976.6
20190523091140 61 337 0.0 2.0 0.00 0.00 0.00 73 976.7
20190523090642 61 225 2.0 2.0 0.00 0.00 0.00 73 976.6
20190523090139 61 157 0.0 1.0 0.00 0.00 0.00 71 976.6
20190523085640 62 225 1.0 1.0 0.00 0.00 0.00 71 976.7
20190523085140 62 270 0.0 4.0 0.00 0.00 0.00 70 976.5
20190523084638 62 247 4.0 4.0 0.00 0.00 0.00 68 976.5
20190523084138 63 337 0.0 1.0 0.00 0.00 0.00 69 976.5
20190523083638 63 337 1.0 4.0 0.00 0.00 0.00 69 976.4